Location: *
(2.5500°S, 65.9667°W)
Time: 07:34:05
(UTC+00:00)

Tiros 1 despin weight - Pass Details

Date: 14 April 2024
Orbit: 578 x 621 km, 48.2° (Epoch: 27 May)

Event Time Altitude Azimuth Distance (km) Brightness Sun altitude
Rises 04:41:46 0° 315° (NW) 2,867 - -81.7°
Reaches altitude 10° 04:44:05 10° 311° (NW) 1,959 - -81.4°
Maximum altitude 04:48:32 61° 231° (SW) 686 - -80.7°
Drops below altitude 10° 04:52:57 10° 150° (SSE) 1,942 - -80.0°
Sets 04:55:15 0° 147° (SSE) 2,838 - -79.5°
